Flag for Switzerland Weather past 2 weeks in Schaffhausen, Schaffhausen, Switzerland

Now
58 °F

Cool.


Feels Like: 58 °F
Forecast: 48 / 68 °F
Wind: 1 mph from Northeast

Location: Zurich-Kloten

Current Time: Oct 2, 2014 at 12:53:11 AM

Latest Report: Oct 2, 2014 at 12:00 AM


Visibility: N/A

Pressure: 30.35 "Hg

Humidity: 98%

Dew point: 58 °F

Location of SchaffhausenLocation

Historic Weather in Schaffhausen — Graph

°F

Schaffhausen temperature yesterday

Maximum temperature yesterday: 69 °F (at 4:00 PM)
Minimum temperature yesterday: 58 °F (at 1:00 AM)
Average temperature yesterday: 62 °F

Past Weeks' High & Low Weather Summary

 TemperatureHumidityPressure
High74 °F (Sep 17, 5:00 PM)100% (Sep 18, 5:00 AM)30.36 "Hg (Sep 18, 5:00 AM)
Low38 °F (Sep 24, 7:00 AM)46% (Sep 26, 5:00 PM)29.81 "Hg (Sep 17, 5:00 PM)
Average58 °F84%30.13 "Hg
* Reported Sep 16 11:00 PM — Oct 1 11:00 PM, Schaffhausen, Weather by CustomWeather, © 2014

Note: Actual official high and low records may vary slightly from our data, if they occured in-between our weather recording intervals... More about our weather records

Advertising

Schaffhausen weather history for previous 24 hours

 ConditionsComfort  
Time TempWeatherWind HumidityBarometerVisibility
11:00 PM
Oct 1
59 °FFog.2 mph97%30.35 "Hg4 mi
10:00 PM59 °FCool.2 mph95%30.33 "HgN/A
9:00 PM60 °FCool.1 mph94%30.32 "HgN/A
8:00 PM61 °FOvercast.1 mph93%30.31 "Hg6 mi
7:00 PM62 °FCool.5 mph92%30.29 "HgN/A
6:00 PM64 °FMild.7 mph85%30.28 "HgN/A
5:00 PM68 °FPartly sunny.2 mph64%30.27 "Hg12 mi
4:00 PM69 °FMild.2 mph64%30.26 "HgN/A
3:00 PM68 °FMild.6 mph69%30.27 "HgN/A
2:00 PM68 °FScattered clouds.3 mph66%30.29 "Hg9 mi
1:00 PM66 °FMild.5 mph72%30.30 "HgN/A
12:00 PM65 °FMild.5 mph78%30.31 "HgN/A
11:00 AM63 °FLow clouds.3 mph85%30.32 "Hg3 mi
10:00 AM60 °FCool.5 mph96%30.31 "HgN/A
9:00 AM60 °FCool.5 mph94%30.30 "HgN/A
8:00 AM59 °FLow clouds.2 mph97%30.29 "Hg2 mi
7:00 AM59 °FCool.1 mph98%30.29 "HgN/A
6:00 AM59 °FCool.1 mph97%30.29 "HgN/A
5:00 AM59 °FFog.1 mph98%30.30 "Hg3 mi
4:00 AM59 °FCool.1 mph96%30.30 "HgN/A
3:00 AM58 °FCool.No wind98%30.30 "HgN/A
2:00 AM58 °FFog.1 mph97%30.31 "Hg4 mi
1:00 AM58 °FCool.1 mph97%30.30 "HgN/A
12:00 AM58 °FCool.2 mph97%30.32 "HgN/A
Weather by CustomWeather, © 2014

See weather overviewHow to use our weather pages